Flag Weather past 2 weeks in Soltau, Lower Saxony, Germany

Now
50 °F

Broken clouds.


Feels Like: 48 °F
Forecast: 40 / 49 °F
Wind: 5 mph from South

Location: Fassberg

Current Time: Nov 23, 2014 at 1:31:57 PM

Latest Report: Nov 23, 2014 at 12:20 PM


Visibility: N/A

Pressure: 30.12 "Hg

Humidity: 76%

Dew point: 43 °F

Location of SoltauLocation

Historic Weather in Soltau — Graph

°F

Soltau temperature yesterday

Maximum temperature yesterday: 45 °F (at 12:20 PM)
Minimum temperature yesterday: 37 °F (at 4:20 AM)
Average temperature yesterday: 40 °F

Past Weeks' High & Low Weather Summary

 TemperatureHumidityPressure
High55 °F (Nov 8, 1:20 PM)100% (Nov 9, 5:20 AM)30.39 "Hg (Nov 9, 5:20 AM)
Low30 °F (Nov 11, 5:20 AM)62% (Nov 21, 12:20 PM)29.53 "Hg (Nov 16, 12:20 PM)
Average44 °F90%29.93 "Hg
* Reported Nov 8 12:20 PM — Nov 23 12:20 PM, Soltau, Weather by CustomWeather, © 2014

Note: Actual official high and low records may vary slightly from our data, if they occured in-between our weather recording intervals... More about our weather records

Advertising

Soltau weather history for previous 24 hours

 ConditionsComfort  
Time TempWeatherWind HumidityBarometerVisibility
12:20 PM
Nov 23
50 °FBroken clouds.5 mph76%30.12 "HgN/A
11:20 AM46 °FPartly sunny.6 mph82%30.15 "HgN/A
10:20 AM45 °FPartly sunny.2 mph87%30.15 "Hg5 mi
9:46 AM43 °FPartly sunny.2 mph93%30.15 "Hg5 mi
9:20 AM41 °FPartly sunny.2 mph93%30.15 "Hg4 mi
8:20 AM39 °FPartly sunny.5 mph100%30.15 "Hg4 mi
7:20 AM37 °FFog.2 mph93%30.12 "Hg3 mi
6:20 AM39 °FPassing clouds.5 mph93%30.12 "Hg4 mi
5:20 AM39 °FPassing clouds.3 mph93%30.12 "Hg4 mi
4:20 AM39 °FPassing clouds.5 mph93%30.12 "Hg5 mi
3:20 AM39 °FPassing clouds.3 mph87%30.15 "Hg5 mi
2:20 AM39 °FPassing clouds.3 mph93%30.12 "Hg5 mi
1:20 AM39 °FPassing clouds.2 mph93%30.15 "Hg5 mi
12:20 AM39 °FPassing clouds.7 mph93%30.15 "Hg5 mi
11:20 PM
Nov 22
39 °FPassing clouds.8 mph93%30.15 "Hg5 mi
10:20 PM39 °FPassing clouds.8 mph93%30.15 "Hg4 mi
9:20 PM39 °FPassing clouds.7 mph93%30.15 "Hg4 mi
8:20 PM39 °FPassing clouds.7 mph87%30.15 "Hg4 mi
7:20 PM37 °FPassing clouds.6 mph93%30.15 "Hg5 mi
6:20 PM39 °FPassing clouds.5 mph93%30.15 "Hg5 mi
5:20 PM43 °FPartly cloudy.7 mph87%30.15 "Hg6 mi
4:20 PM43 °FPartly cloudy.9 mph87%30.12 "Hg6 mi
3:20 PM43 °FLight rain. Partly sunny.10 mph81%30.15 "HgN/A
2:20 PM45 °FBroken clouds.8 mph76%30.15 "HgN/A
1:20 PM45 °FPartly sunny.10 mph71%30.15 "HgN/A
Weather by CustomWeather, © 2014

See weather overviewHow to use our weather pages